Eagle, CO

6:46 AM MST on November 23, 2017 (GMT -0700)
Eagle County Regional

Weather History for KEGE - November, 2012

Change the Weather History Date:

Sunday, November 4, 2012

  Actual Average Record
Temperature  
Mean Temperature 40 °F -  
Max Temperature 59 °F 53 °F 69 °F (1977)
Min Temperature 21 °F 21 °F 0 °F (1956)
Degree Days  
Heating Degree Days 25    
Moisture  
Dew Point 21 °F    
Average Humidity 61    
Maximum Humidity 86    
Minimum Humidity 26    
Precipitation  
Precipitation 0.00 in - - ()
Sea Level Pressure  
Sea Level Pressure 30.35 in    
Wind  
Wind Speed 1 mph (ESE)    
Max Wind Speed 8 mph    
Max Gust Speed -    
Visibility 10 miles    
Events      
Averages and records for this station are not official NWS values.
T = Trace of Precipitation, MM = Missing Value Source: NWS Daily Summary

Daily Weather History Graph

Daily Weather History Graph

Search for Another Location

Airport or City:

Trip Planner

Search our weather history database for the weather conditions in past years. The results will help you decide how hot, cold, wet, or windy it might be!

Date:

Astronomy

Nov. 04, 2012 Rise Set
Actual Time 6:40 AM MST 5:01 PM MST
Civil Twilight 6:11 AM MST 5:30 PM MST
Nautical Twilight 5:39 AM MST 6:01 PM MST
Astronomical Twilight 5:08 AM MST 6:33 PM MST
Moon 9:42 PM MST (11/4) 11:25 AM MST (11/4)
Length of Visible Light 11h 18m
Length of Day
10h 21m
Waning Gibbous, 71% of the Moon is Illuminated
Nov 4
Waning Gibbous
Nov 6
Last Quarter
Nov 13
New
Nov 20
First Quarter
Nov 28
Full

Hourly Weather History & Observations

Time (MST) Temp. Windchill Dew Point Humidity Pressure Visibility Wind Dir Wind Speed Gust Speed Precip Events Conditions
12:15 AM 32.0 °F - 19.4 °F 60% 30.29 in 10.0 mi Calm Calm - N/A   Clear
12:35 AM 32.0 °F 28.7 °F 19.4 °F 60% 30.30 in 10.0 mi SE 3.5 mph - N/A   Clear
12:55 AM 30.2 °F - 19.4 °F 64% 30.30 in 10.0 mi Calm Calm - N/A   Clear
1:15 AM 30.2 °F 26.7 °F 19.4 °F 64% 30.30 in 10.0 mi ESE 3.5 mph - N/A   Clear
1:35 AM 30.2 °F - 19.4 °F 64% 30.30 in 10.0 mi Calm Calm - N/A   Clear
1:55 AM 28.4 °F - 19.4 °F 69% 30.30 in 10.0 mi Calm Calm - N/A   Clear
1:15 AM 28.4 °F - 19.4 °F 69% 30.31 in 10.0 mi Calm Calm - N/A   Clear
1:35 AM 28.4 °F - 19.4 °F 69% 30.31 in 10.0 mi Calm Calm - N/A   Clear
1:55 AM 26.6 °F - 19.4 °F 74% 30.32 in 10.0 mi Calm Calm - N/A   Clear
2:15 AM 26.6 °F - 17.6 °F 69% 30.32 in 10.0 mi Calm Calm - N/A   Clear
2:35 AM 26.6 °F - 19.4 °F 74% 30.32 in 10.0 mi Calm Calm - N/A   Clear
2:55 AM 26.6 °F - 17.6 °F 69% 30.32 in 10.0 mi Calm Calm - N/A   Clear
3:15 AM 26.6 °F - 17.6 °F 69% 30.32 in 10.0 mi Calm Calm - N/A   Clear
3:35 AM 24.8 °F - 17.6 °F 74% 30.33 in 10.0 mi Calm Calm - N/A   Clear
3:55 AM 26.6 °F - 17.6 °F 69% 30.33 in 10.0 mi Calm Calm - N/A   Clear
4:15 AM 24.8 °F - 17.6 °F 74% 30.35 in 10.0 mi Calm Calm - N/A   Clear
4:35 AM 24.8 °F - 17.6 °F 74% 30.35 in 10.0 mi Calm Calm - N/A   Clear
4:55 AM 23.0 °F 17.0 °F 17.6 °F 80% 30.36 in 10.0 mi ESE 4.6 mph - N/A   Clear
5:15 AM 24.8 °F - 17.6 °F 74% 30.36 in 10.0 mi Calm Calm - N/A   Clear
5:35 AM 24.8 °F - 17.6 °F 74% 30.36 in 10.0 mi Calm Calm - N/A   Clear
5:55 AM 23.0 °F - 17.6 °F 80% 30.36 in 10.0 mi Calm Calm - N/A   Clear
6:15 AM 21.2 °F - 17.6 °F 86% 30.36 in 10.0 mi Calm Calm - N/A   Clear
6:35 AM 23.0 °F - 17.6 °F 80% 30.37 in 10.0 mi Calm Calm - N/A   Clear
6:50 AM 23.0 °F - 17.6 °F 80% 30.37 in 10.0 mi Calm Calm - N/A   Mostly Cloudy
7:50 AM 24.8 °F - 17.6 °F 74% 30.39 in 10.0 mi Calm Calm - N/A   Mostly Cloudy
8:50 AM 26.6 °F - 19.4 °F 74% 30.40 in 10.0 mi Calm Calm - N/A   Mostly Cloudy
9:50 AM 33.8 °F - 19.4 °F 56% 30.40 in 10.0 mi Calm Calm - N/A   Mostly Cloudy
10:50 AM 37.4 °F - 19.4 °F 48% 30.39 in 10.0 mi Calm Calm - N/A   Mostly Cloudy
11:55 AM 44.6 °F - 19.4 °F 37% 30.35 in 10.0 mi Calm Calm - N/A   Scattered Clouds
1:48 PM 55.4 °F - 21.2 °F 26% 30.29 in 10.0 mi Calm Calm - N/A   Mostly Cloudy
2:49 PM 57.2 °F - 41.0 °F 55% 30.29 in 10.0 mi WNW 3.5 mph - N/A   Mostly Cloudy
3:55 PM 59.0 °F - 39.2 °F 48% 30.30 in 10.0 mi WSW 6.9 mph - N/A   Mostly Cloudy
4:50 PM 55.4 °F - 23.0 °F 29% 30.31 in 10.0 mi SW 473.0 mph - N/A   Scattered Clouds
5:50 PM 50.0 °F - 21.2 °F 32% 30.33 in 10.0 mi Calm Calm - N/A   Partly Cloudy
6:45 PM 48.2 °F - 21.2 °F 34% 30.35 in 10.0 mi Calm Calm - N/A   Partly Cloudy
7:15 PM 42.8 °F 38.0 °F 23.0 °F 46% 30.36 in 10.0 mi East 8.1 mph - N/A   Clear
7:35 PM 41.0 °F 35.8 °F 24.8 °F 53% 30.37 in 10.0 mi ESE 8.1 mph - N/A   Clear
7:55 PM 41.0 °F 36.4 °F 23.0 °F 49% 30.37 in 10.0 mi ESE 6.9 mph - N/A   Clear
8:15 PM 39.2 °F 34.2 °F 23.0 °F 52% 30.38 in 10.0 mi East 6.9 mph - N/A   Clear
8:35 PM 39.2 °F 35.0 °F 23.0 °F 52% 30.38 in 10.0 mi ESE 5.8 mph - N/A   Clear
8:55 PM 39.2 °F 34.2 °F 23.0 °F 52% 30.39 in 10.0 mi ESE 6.9 mph - N/A   Clear
9:15 PM 37.4 °F - 21.2 °F 52% 30.40 in 10.0 mi Calm Calm - N/A   Clear
9:35 PM 35.6 °F 31.7 °F 23.0 °F 60% 30.40 in 10.0 mi East 4.6 mph - N/A   Clear
9:55 PM 35.6 °F 31.7 °F 23.0 °F 60% 30.40 in 10.0 mi ESE 4.6 mph - N/A   Clear
10:15 PM 35.6 °F - 21.2 °F 56% 30.40 in 10.0 mi Calm Calm - N/A   Clear
10:35 PM 33.8 °F 30.8 °F 21.2 °F 60% 30.41 in 10.0 mi ESE 3.5 mph - N/A   Clear
10:55 PM 33.8 °F 28.6 °F 21.2 °F 60% 30.41 in 10.0 mi SE 5.8 mph - N/A   Clear